SBI7520 UTAA-LTFG

Flight info

Callsign SBI7520
Flight time N/A
Altitude 36000
Route UTAA N0440F360 MAM29D MAMED B449 DUKAN N449 INDUR UN161 ERZ UL615 SIV UA285 MUT UT339 ELROP ELRO1D ROKDU BEPTO EVBUM MA08 RW08 LTFG
Aircraft B738/M-SDGIWZ/S

Departure

Time 2026-04-27 07:01
Airport Ashgabat International Airport (UTAA)

Arrival

Time N/A
Airport Gazipaşa-Alanya Airport (LTFG)
Time Latitude Longitude Altitude Speed Heading
2026-04-27 06:45 37.96722 58.37336 699 ft 0 kts 128°
2026-04-27 06:57 37.96730 58.37323 699 ft 3 kts 128°
2026-04-27 06:58 37.96749 58.37292 699 ft 3 kts 143°
2026-04-27 06:58 37.96755 58.37275 699 ft 12 kts 236°
2026-04-27 06:58 37.96688 58.37255 699 ft 13 kts 135°
2026-04-27 06:59 37.96620 58.37376 699 ft 13 kts 96°
2026-04-27 06:59 37.96684 58.37465 699 ft 19 kts 38°
2026-04-27 06:59 37.96811 58.37528 699 ft 22 kts 347°
2026-04-27 06:59 37.96972 58.37463 699 ft 26 kts 343°
2026-04-27 07:00 37.97140 58.37347 699 ft 30 kts 320°
2026-04-27 07:00 37.97315 58.37305 699 ft 17 kts 342°
2026-04-27 07:00 37.97384 58.37190 699 ft 26 kts 298°
2026-04-27 07:00 37.97604 58.36692 699 ft 101 kts 300°
2026-04-27 07:01 37.98056 58.35666 699 ft 162 kts 299°
2026-04-27 07:01 37.98669 58.34283 862 ft 196 kts 299°
2026-04-27 07:01 37.99366 58.32678 1327 ft 213 kts 299°
2026-04-27 07:01 38.00059 58.31082 2229 ft 206 kts 300°
2026-04-27 07:02 38.00810 58.29423 2439 ft 234 kts 300°
2026-04-27 07:02 38.01630 58.27580 2937 ft 246 kts 298°
2026-04-27 07:02 38.02589 58.25702 3507 ft 259 kts 309°
2026-04-27 07:02 38.03912 58.24167 4183 ft 270 kts 327°
2026-04-27 07:03 38.05544 58.22886 4900 ft 279 kts 326°
2026-04-27 07:03 38.07116 58.21457 5630 ft 285 kts 321°
2026-04-27 07:03 38.08683 58.19925 6480 ft 287 kts 321°
2026-04-27 07:03 38.10267 58.18362 7214 ft 292 kts 320°
2026-04-27 07:04 38.11836 58.16798 8089 ft 290 kts 319°
2026-04-27 07:04 38.13424 58.15196 8850 ft 292 kts 319°
2026-04-27 07:04 38.14953 58.13658 9969 ft 280 kts 319°
2026-04-27 07:04 38.16519 58.12072 10261 ft 300 kts 319°
2026-04-27 07:05 38.18205 58.10366 10420 ft 322 kts 319°
2026-04-27 07:05 38.19997 58.08565 10574 ft 342 kts 319°
2026-04-27 07:05 38.21915 58.06637 11014 ft 352 kts 319°
2026-04-27 07:05 38.23825 58.04717 11488 ft 360 kts 319°
2026-04-27 07:06 38.25812 58.02716 12111 ft 362 kts 319°
2026-04-27 07:06 38.27779 58.00735 12682 ft 366 kts 319°
2026-04-27 07:06 38.29758 57.98739 13244 ft 369 kts 319°
2026-04-27 07:06 38.31792 57.96687 13827 ft 371 kts 319°
2026-04-27 07:07 38.33807 57.94654 14361 ft 374 kts 319°
2026-04-27 07:07 38.35851 57.92590 14888 ft 376 kts 319°
2026-04-27 07:07 38.37872 57.90546 15390 ft 379 kts 319°
2026-04-27 07:07 38.39939 57.88459 15883 ft 381 kts 319°
2026-04-27 07:08 38.42038 57.86342 16355 ft 384 kts 319°
2026-04-27 07:08 38.44131 57.84230 16857 ft 385 kts 319°
2026-04-27 07:08 38.46207 57.82135 17303 ft 387 kts 319°
2026-04-27 07:08 38.48326 57.79998 17747 ft 389 kts 319°
2026-04-27 07:09 38.50436 57.77869 18169 ft 391 kts 319°
2026-04-27 07:09 38.52571 57.75717 18578 ft 393 kts 319°
2026-04-27 07:09 38.54715 57.73555 18978 ft 395 kts 319°
2026-04-27 07:09 38.56885 57.71370 19360 ft 397 kts 319°
2026-04-27 07:10 38.59036 57.69192 19731 ft 399 kts 317°
2026-04-27 07:10 38.60893 57.66579 20028 ft 397 kts 301°
2026-04-27 07:10 38.62290 57.63582 20555 ft 393 kts 297°
2026-04-27 07:10 38.63446 57.60419 20713 ft 397 kts 289°
2026-04-27 07:11 38.64379 57.57085 21186 ft 395 kts 288°
2026-04-27 07:11 38.65311 57.53810 21403 ft 399 kts 289°
2026-04-27 07:11 38.66290 57.50462 21764 ft 400 kts 289°
2026-04-27 07:11 38.67253 57.47133 22078 ft 401 kts 289°
2026-04-27 07:12 38.68218 57.43767 22364 ft 403 kts 289°
2026-04-27 07:12 38.69172 57.40431 22649 ft 405 kts 289°
2026-04-27 07:12 38.70139 57.37045 22944 ft 406 kts 289°
2026-04-27 07:12 38.71111 57.33631 23204 ft 408 kts 288°
2026-04-27 07:13 38.72070 57.30259 23507 ft 408 kts 288°
2026-04-27 07:13 38.73048 57.26811 23749 ft 410 kts 288°
2026-04-27 07:13 38.74020 57.23383 24006 ft 412 kts 288°
2026-04-27 07:13 38.74994 57.19942 24261 ft 413 kts 288°
2026-04-27 07:14 38.75963 57.16508 24512 ft 414 kts 288°
2026-04-27 07:14 38.76952 57.13002 24746 ft 415 kts 288°
2026-04-27 07:14 38.77929 57.09537 24986 ft 416 kts 288°
2026-04-27 07:14 38.78901 57.06082 25248 ft 416 kts 288°
2026-04-27 07:15 38.79891 57.02556 25463 ft 418 kts 288°
2026-04-27 07:15 38.80865 56.99085 25708 ft 418 kts 288°
2026-04-27 07:15 38.81851 56.95563 25914 ft 419 kts 288°
2026-04-27 07:15 38.82825 56.92081 26158 ft 419 kts 288°
2026-04-27 07:16 38.83804 56.88579 26349 ft 420 kts 288°
2026-04-27 07:16 38.84789 56.85047 26542 ft 421 kts 288°
2026-04-27 07:16 38.85770 56.81532 26717 ft 422 kts 288°
2026-04-27 07:16 38.86756 56.78002 26894 ft 423 kts 288°
2026-04-27 07:17 38.87746 56.74440 27058 ft 424 kts 288°
2026-04-27 07:17 38.88736 56.70855 27242 ft 424 kts 288°
2026-04-27 07:17 38.89716 56.67297 27423 ft 424 kts 288°
2026-04-27 07:17 38.90692 56.63757 27559 ft 426 kts 288°
2026-04-27 07:18 38.91684 56.60150 27714 ft 426 kts 288°
2026-04-27 07:18 38.92660 56.56611 27878 ft 427 kts 288°
2026-04-27 07:18 38.93658 56.53001 27995 ft 428 kts 288°
2026-04-27 07:18 38.94660 56.49382 28164 ft 428 kts 288°
2026-04-27 07:19 38.95640 56.45829 28274 ft 429 kts 288°
2026-04-27 07:19 38.96633 56.42214 28393 ft 430 kts 288°
2026-04-27 07:19 38.97623 56.38589 28534 ft 430 kts 287°
2026-04-27 07:20 38.99593 56.31347 28838 ft 430 kts 287°
2026-04-27 07:20 39.00554 56.27724 29062 ft 428 kts 285°
2026-04-27 07:20 39.01400 56.24068 29283 ft 425 kts 283°
2026-04-27 07:20 39.02210 56.20393 29475 ft 424 kts 284°
2026-04-27 07:21 39.03018 56.16807 29658 ft 424 kts 284°
2026-04-27 07:21 39.03852 56.13191 29843 ft 423 kts 284°
2026-04-27 07:21 39.04693 56.09542 30018 ft 422 kts 284°
2026-04-27 07:21 39.05518 56.05930 30190 ft 421 kts 284°
2026-04-27 07:22 39.06330 56.02343 30351 ft 421 kts 284°
2026-04-27 07:22 39.07959 55.95119 30555 ft 422 kts 284°
2026-04-27 07:22 39.08786 55.91486 30664 ft 422 kts 284°
2026-04-27 07:23 39.09614 55.87869 30799 ft 422 kts 284°
2026-04-27 07:23 39.10438 55.84257 30995 ft 420 kts 284°
2026-04-27 07:23 39.11250 55.80682 31166 ft 419 kts 284°
2026-04-27 07:23 39.12059 55.77105 31292 ft 419 kts 284°
2026-04-27 07:24 39.12868 55.73510 31381 ft 419 kts 284°
2026-04-27 07:24 39.13679 55.69877 31486 ft 419 kts 284°
2026-04-27 07:24 39.14470 55.66318 31580 ft 419 kts 284°
2026-04-27 07:24 39.15277 55.62693 31738 ft 418 kts 284°
2026-04-27 07:25 39.16081 55.59092 31875 ft 417 kts 284°
2026-04-27 07:25 39.17688 55.51924 32078 ft 417 kts 284°
2026-04-27 07:26 39.19284 55.44758 32275 ft 417 kts 284°
2026-04-27 07:26 39.20069 55.41182 32391 ft 416 kts 284°
2026-04-27 07:26 39.20852 55.37588 32488 ft 416 kts 284°
2026-04-27 07:27 39.22420 55.30426 32707 ft 415 kts 283°
2026-04-27 07:27 39.23976 55.23311 32935 ft 414 kts 284°
2026-04-27 07:27 39.24763 55.19730 33131 ft 412 kts 283°
2026-04-27 07:28 39.25532 55.16199 33336 ft 409 kts 283°
2026-04-27 07:28 39.26293 55.12700 33438 ft 409 kts 283°
2026-04-27 07:28 39.27067 55.09143 33527 ft 409 kts 283°
2026-04-27 07:29 39.28598 55.02115 33696 ft 409 kts 283°
2026-04-27 07:29 39.30167 54.95026 33874 ft 409 kts 284°
2026-04-27 07:30 39.31710 54.88015 34042 ft 409 kts 283°
2026-04-27 07:30 39.33244 54.80963 34194 ft 409 kts 283°
2026-04-27 07:31 39.34772 54.73891 34363 ft 408 kts 283°
2026-04-27 07:31 39.36251 54.66799 34517 ft 408 kts 283°
2026-04-27 07:32 39.37732 54.59761 34680 ft 407 kts 283°
2026-04-27 07:32 39.39255 54.52731 34847 ft 407 kts 284°
2026-04-27 07:33 39.40757 54.45722 35027 ft 405 kts 284°
2026-04-27 07:33 39.42252 54.38741 35204 ft 404 kts 283°
2026-04-27 07:34 39.43738 54.31739 35357 ft 403 kts 283°
2026-04-27 07:34 39.45206 54.24790 35532 ft 402 kts 283°
2026-04-27 07:35 39.46669 54.17822 35693 ft 402 kts 283°
2026-04-27 07:35 39.48118 54.10870 35844 ft 401 kts 283°
2026-04-27 07:36 39.49567 54.03923 35940 ft 402 kts 283°
2026-04-27 07:36 39.50995 53.96937 35938 ft 404 kts 282°
2026-04-27 07:37 39.52403 53.89867 35939 ft 405 kts 282°
2026-04-27 07:37 39.53824 53.82852 35937 ft 404 kts 283°
2026-04-27 07:38 39.55260 53.75835 35940 ft 404 kts 283°
2026-04-27 07:38 39.56682 53.68796 35939 ft 405 kts 282°
2026-04-27 07:39 39.58082 53.61710 35939 ft 405 kts 283°
2026-04-27 07:39 39.59481 53.54691 35939 ft 405 kts 282°
2026-04-27 07:40 39.60879 53.47629 35936 ft 404 kts 282°
2026-04-27 07:40 39.62267 53.40603 35939 ft 405 kts 283°
2026-04-27 07:41 39.63673 53.33535 35938 ft 405 kts 282°
2026-04-27 07:41 39.65069 53.26488 35938 ft 404 kts 282°
2026-04-27 07:42 39.66453 53.19445 35939 ft 405 kts 282°
2026-04-27 07:42 39.67853 53.12390 35939 ft 404 kts 282°
2026-04-27 07:43 39.69256 53.05373 35939 ft 404 kts 282°
2026-04-27 07:43 39.70652 52.98306 35938 ft 405 kts 282°
2026-04-27 07:44 39.72056 52.91182 35939 ft 408 kts 282°
2026-04-27 07:44 39.73428 52.84103 35939 ft 408 kts 282°
2026-04-27 07:45 39.74816 52.76953 35938 ft 408 kts 282°
2026-04-27 07:45 39.76208 52.69789 35938 ft 409 kts 282°
2026-04-27 07:46 39.77629 52.62696 35939 ft 408 kts 283°
2026-04-27 07:46 39.79055 52.55575 35939 ft 408 kts 282°
2026-04-27 07:47 39.80429 52.48415 35938 ft 409 kts 282°
2026-04-27 07:47 39.81795 52.41252 35939 ft 408 kts 282°
2026-04-27 07:48 39.83184 52.34137 35941 ft 409 kts 282°
2026-04-27 07:48 39.84604 52.26949 35937 ft 410 kts 282°
2026-04-27 07:49 39.86000 52.19805 35936 ft 407 kts 282°
2026-04-27 07:49 39.87358 52.12678 35939 ft 408 kts 282°
2026-04-27 07:50 39.88689 52.05503 35937 ft 409 kts 282°
2026-04-27 07:50 39.90069 51.98351 35939 ft 408 kts 282°
2026-04-27 07:51 39.91460 51.91174 35939 ft 408 kts 282°
2026-04-27 07:51 39.92831 51.83990 35938 ft 410 kts 282°
2026-04-27 07:52 39.94142 51.76828 35937 ft 408 kts 281°
2026-04-27 07:52 39.95462 51.69662 35939 ft 408 kts 282°
2026-04-27 07:53 39.96799 51.62475 35939 ft 410 kts 282°
2026-04-27 07:53 39.98138 51.55259 35924 ft 410 kts 282°
2026-04-27 07:54 39.99390 51.48041 35900 ft 408 kts 278°
2026-04-27 07:54 40.00134 51.40772 35877 ft 408 kts 276°
2026-04-27 07:55 40.00923 51.33438 35857 ft 408 kts 277°
2026-04-27 07:55 40.01740 51.26154 35859 ft 407 kts 276°
2026-04-27 07:56 40.02535 51.18853 35856 ft 407 kts 276°
2026-04-27 07:56 40.03306 51.11549 35859 ft 408 kts 276°
2026-04-27 07:57 40.04070 51.04261 35856 ft 404 kts 276°
2026-04-27 07:57 40.04826 50.97022 35858 ft 402 kts 276°
2026-04-27 07:58 40.05580 50.89831 35859 ft 399 kts 276°
2026-04-27 07:58 40.06322 50.82724 35857 ft 399 kts 277°
2026-04-27 07:59 40.06997 50.75522 35858 ft 399 kts 276°
2026-04-27 07:59 40.08013 50.64818 35860 ft 398 kts 277°
2026-04-27 08:00 40.08733 50.57625 35856 ft 399 kts 276°
2026-04-27 08:00 40.09436 50.50476 35857 ft 398 kts 276°
2026-04-27 08:01 40.10130 50.43287 35857 ft 398 kts 276°
2026-04-27 08:01 40.10837 50.36174 35857 ft 397 kts 276°
2026-04-27 08:02 40.11533 50.29008 35860 ft 400 kts 276°
2026-04-27 08:02 40.12191 50.21830 35857 ft 398 kts 276°
2026-04-27 08:03 40.12868 50.14674 35858 ft 396 kts 276°
2026-04-27 08:03 40.13543 50.07530 35857 ft 397 kts 276°
2026-04-27 08:04 40.14236 50.00364 35856 ft 400 kts 276°
2026-04-27 08:04 40.14942 49.93187 35855 ft 398 kts 276°
2026-04-27 08:05 40.15599 49.86039 35908 ft 397 kts 276°
2026-04-27 08:05 40.16330 49.78900 35914 ft 398 kts 277°
2026-04-27 08:06 40.17056 49.71754 35911 ft 399 kts 276°
2026-04-27 08:06 40.17757 49.64558 35913 ft 399 kts 276°
2026-04-27 08:07 40.18438 49.57404 35910 ft 398 kts 276°
2026-04-27 08:07 40.19038 49.50208 35912 ft 398 kts 272°
2026-04-27 08:08 40.18916 49.42997 35911 ft 398 kts 268°
2026-04-27 08:08 40.18847 49.35781 35911 ft 400 kts 271°
2026-04-27 08:09 40.18889 49.28490 35912 ft 399 kts 269°
2026-04-27 08:09 40.18793 49.21282 35911 ft 398 kts 269°
2026-04-27 08:10 40.18796 49.14032 35912 ft 398 kts 270°
2026-04-27 08:10 40.18842 49.06849 35911 ft 395 kts 270°
2026-04-27 08:11 40.18806 48.99713 35910 ft 392 kts 269°
2026-04-27 08:11 40.18716 48.92596 35913 ft 392 kts 270°
2026-04-27 08:12 40.18669 48.85506 35913 ft 394 kts 269°
2026-04-27 08:12 40.18670 48.78363 35910 ft 392 kts 271°
2026-04-27 08:13 40.18636 48.71250 35913 ft 392 kts 269°
2026-04-27 08:13 40.18517 48.64124 35914 ft 393 kts 269°
2026-04-27 08:14 40.18454 48.56990 35912 ft 393 kts 271°
2026-04-27 08:14 40.18476 48.49907 35913 ft 392 kts 271°
2026-04-27 08:15 40.18441 48.42802 35910 ft 392 kts 270°
2026-04-27 08:15 40.18364 48.35638 35913 ft 393 kts 270°
2026-04-27 08:16 40.18207 48.28525 35909 ft 392 kts 269°
2026-04-27 08:16 40.18092 48.21424 35914 ft 394 kts 269°
2026-04-27 08:17 40.18005 48.14313 35909 ft 391 kts 269°
2026-04-27 08:17 40.17919 48.07232 35911 ft 391 kts 270°
2026-04-27 08:18 40.17826 48.00127 35913 ft 393 kts 269°
2026-04-27 08:18 40.17707 47.92963 35923 ft 393 kts 270°
2026-04-27 08:19 40.17614 47.85841 35940 ft 393 kts 270°
2026-04-27 08:19 40.17552 47.78718 35952 ft 392 kts 270°
2026-04-27 08:20 40.17510 47.71646 35855 ft 393 kts 270°
2026-04-27 08:20 40.17370 47.64497 35859 ft 393 kts 269°
2026-04-27 08:21 40.17207 47.57410 35857 ft 390 kts 270°
2026-04-27 08:21 40.17162 47.50351 35858 ft 392 kts 270°
2026-04-27 08:22 40.17033 47.43187 35857 ft 393 kts 269°
2026-04-27 08:22 40.16854 47.36084 35858 ft 391 kts 269°
2026-04-27 08:23 40.16689 47.28995 35857 ft 394 kts 269°
2026-04-27 08:23 40.16598 47.25369 35861 ft 393 kts 269°
2026-04-27 08:24 37.96722 58.37336 699 ft 0 kts 128°